Snowfall_Accumulation
0.0 0.0 0.0 0.0 0.0 0.0 0.0 0.0 0.0 0.0 0.0 0.0 0.0 0.0 0.0 0.0 0.0 0.0 0.0 0.0 0.0 0.0 0.0 0.0 0.0 0.0 0.0 0.0 0.0 0.0 0.0 0.0 0.0 0.0 0.0 0.0 0.0 0.0 0.0 0.0 0.0 0.0 0.0 0.0
0.0 0.0 0.0 0.0 0.0 0.0 0.0 0.0 0.0 0.0 0.0 0.0 0.0 0.0 0.0 0.0 0.0 0.0 0.0 0.0 0.0 0.0 0.0 0.0 0.0 0.0 0.0 0.0 0.0 0.0 0.0 0.0 0.0 0.0 0.0 0.0 0.0 0.0 0.0 0.0 0.0 0.0 0.0 0.0
0.0 0.0 0.0 0.0 0.0 0.0 0.0 0.0 0.0 0.0 0.0 0.0 0.0 0.0 0.0 0.0 0.0 0.0 0.0 0.0 0.0 0.0 0.0 0.0 0.0 0.0 0.0 0.0 0.0 0.0 0.0 0.0 0.0 0.0 0.0 0.0 0.0 0.0 0.0 0.0 0.0 0.0 0.0 0.0
0.0 0.0 0.0 0.0 0.0 0.0 0.0 0.0 0.0 0.0 0.0 0.0 0.0 0.0 0.0 0.0 0.0 0.0 0.0 0.0 0.0 0.0 0.0 0.0 0.0 0.0 0.0 0.0 0.0 0.0 0.0 0.0 0.0 0.0 0.0 0.0 0.0 0.0 0.0 0.0 0.0 0.0 0.0 0.0
0.0 0.0 0.0 0.0 0.0 0.0 0.0 0.0 0.0 0.0 0.0 0.0 0.0 0.0 0.0 0.0 0.0 0.0 0.0 0.0 0.0 0.0 0.0 0.0 0.0 0.0 0.0 0.0 0.0 0.0 0.0 0.0 0.0 0.0 0.0 0.0 0.0 0.0 0.0 0.0 0.0 0.0 0.0 0.0
0.0 0.0 0.0 0.0 0.0 0.0 0.0 0.0 0.0 0.0 0.0 0.9 0.0 0.0 0.0 0.0 0.0 0.0 0.0 0.0 0.0 0.0 0.0 0.0 0.0 0.0 0.0 0.0 0.0 0.0 0.0 0.0 0.0 0.0 0.0 0.0 0.0 0.0 0.0 0.0 0.0 0.0 0.0 0.0
0.0 0.0 0.0 0.0 0.0 0.0 0.0 0.0 3.4 4.9 7.2 0.9 0.0 0.0 0.0 0.0 0.0 0.0 0.0 0.0 0.0 0.0 0.0 0.0 0.0 0.0 0.0 0.0 0.0 0.0 0.0 0.0 0.0 0.0 0.0 0.0 0.0 0.0 0.0 0.0 0.0 0.0 0.0 0.0
0.8 3.5 0.0 0.0 0.0 0.0 0.0 0.0 1.0 0.7 0.7 0.0 0.0 0.1 0.0 0.0 0.0 0.0 0.0 0.0 0.0 0.0 0.0 0.0 0.0 0.0 0.0 0.0 0.0 0.0 0.0 0.0 0.0 0.0 0.0 0.0 0.0 0.0 0.0 0.0 0.0 0.0 0.0 0.0
0.5 0.1 0.0 0.0 0.0 0.0 0.0 0.3 0.0 0.2 1.4 0.7 0.3 0.0 0.0 0.0 0.0 0.0 0.0 0.0 0.0 0.0 0.0 0.0 0.0 0.0 0.0 0.0 0.0 0.0 0.0 0.0 0.0 0.0 0.0 0.0 0.0 0.0 0.0 0.0 0.0 0.0 0.0 0.0
0.0 0.4 0.0 0.0 0.0 0.0 0.0 0.0 2.0 1.6 6.2 2.5 0.1 0.0 0.0 0.0 0.0 0.0 0.0 0.0 0.0 0.0 0.0 0.0 0.0 0.0 0.0 0.0 0.0 0.0 0.0 0.0 0.0 0.0 0.0 0.0 0.0 0.0 0.0 0.0 0.0 0.0 0.0 0.0
0.0 0.0 0.1 0.0 0.0 0.0 0.0 0.0 0.0 0.4 1.5 1.3 0.9 0.0 0.0 0.0 0.0 0.0 0.0 0.0 0.0 0.0 0.0 0.0 0.0 0.0 0.0 0.0 0.0 0.0 0.0 0.0 0.0 0.0 0.0 0.0 0.0 0.0 0.0 0.0 0.0 0.0 0.0 0.0
0.0 0.0 1.1 0.1 0.0 0.0 0.0 0.0 0.0 0.9 0.3 0.6 1.1 0.9 0.0 0.0 0.0 0.0 0.0 0.0 0.0 0.0 0.0 0.0 0.0 0.0 0.0 0.0 0.0 0.0 0.0 0.0 0.0 0.0 0.0 0.0 0.0 0.0 0.0 0.0 0.0 0.0 0.0 0.0
0.0 1.4 6.0 3.8 2.3 0.0 0.0 0.0 0.0 0.0 0.1 0.2 2.1 0.2 0.0 0.0 0.0 0.0 0.0 0.0 0.0 0.0 0.0 0.0 0.0 0.0 0.0 0.0 0.0 0.0 0.0 0.0 0.0 0.0 0.0 0.0 0.0 0.0 0.0 0.0 0.0 0.0 0.0 0.0
nan 0.0 0.1 0.2 0.1 0.0 0.0 0.0 0.0 0.0 3.6 0.1 0.1 0.0 0.0 0.0 0.0 0.0 0.0 0.0 0.0 0.0 0.0 0.0 0.0 0.0 0.0 0.0 0.0 0.0 0.0 0.0 0.0 0.0 0.0 0.0 0.0 0.0 0.0 0.0 0.0 0.0 0.0 0.0
0.0 2.7 0.0 0.0 0.0 0.0 0.0 0.0 0.0 0.1 0.0 0.4 0.0 0.0 0.0 0.0 0.0 0.0 0.0 0.0 0.0 0.0 0.0 0.0 0.0 0.0 0.0 0.0 0.0 0.0 0.0 0.0 0.0 0.0 0.0 0.0 0.0 0.0 0.0 0.0 0.0 0.0 0.0 0.0
0.0 2.5 0.1 2.6 0.0 0.0 0.1 0.0 0.0 0.0 0.0 0.0 0.0 0.0 0.0 0.0 0.0 0.0 0.0 0.0 0.0 0.0 0.0 0.0 0.0 0.0 0.0 0.0 0.0 0.0 0.0 0.0 0.0 0.0 0.0 0.0 0.0 0.0 0.0 0.0 0.0 0.0 0.0 0.0
0.0 1.2 8.3 15.2 0.1 0.2 13.3 0.2 0.0 0.0 0.0 0.0 0.0 0.0 0.0 0.0 0.0 0.0 0.0 0.0 0.0 0.0 0.0 0.0 0.0 0.0 0.0 0.0 0.0 0.0 0.0 0.0 0.0 0.0 0.0 0.0 0.0 0.0 0.0 0.0 0.0 0.0 0.0 0.0
0.0 0.4 1.9 15.8 7.1 44.4 1.7 0.0 0.0 0.0 0.0 0.0 0.0 0.0 0.0 0.0 0.0 0.0 0.0 0.0 0.0 0.0 0.0 0.0 0.0 0.0 0.0 0.0 0.0 0.0 0.0 0.0 0.0 0.0 0.0 0.1 0.1 0.3 0.4 0.4 0.3 0.2 0.1 0.1
0.0 0.1 14.6 29.5 16.3 0.3 0.0 0.0 0.0 0.0 0.0 0.0 0.0 0.0 0.0 0.0 0.0 0.0 0.0 0.0 0.0 0.0 0.0 0.0 0.0 0.0 0.0 0.1 0.2 0.2 0.4 0.3 0.3 0.3 0.4 0.4 0.4 0.5 0.4 0.5 0.4 0.4 0.4 0.3
0.0 0.0 0.5 24.8 23.6 22.7 0.0 0.0 0.0 0.0 0.4 0.0 0.0 0.0 0.0 0.0 0.0 0.0 0.0 0.0 0.0 0.0 0.0 0.1 0.2 0.2 0.2 0.2 0.2 0.3 0.4 0.5 0.5 0.5 0.5 0.4 0.4 0.8 0.7 0.6 0.9 0.9 0.6 0.8
6.9 10.5 22.9 19.6 18.6 5.2 0.0 0.0 0.0 3.3 0.1 0.1 0.0 0.0 0.0 0.0 0.0 0.0 0.0 0.0 0.0 0.0 0.2 0.3 0.6 0.6 1.0 1.3 1.6 1.8 1.5 1.7 1.5 1.6 1.4 1.4 1.2 1.6 0.9 1.0 0.9 1.4 1.6 1.2
4.0 11.1 22.3 15.4 20.4 27.2 0.0 0.0 0.0 0.0 0.0 0.0 0.0 0.0 0.0 0.0 0.0 0.0 0.0 0.0 0.1 0.2 0.3 0.3 0.3 0.4 0.5 0.8 0.7 0.9 0.9 1.1 1.8 2.0 2.3 2.5 2.5 2.0 1.6 2.7 2.3 3.1 2.7 3.0
5.4 0.7 3.4 0.5 2.4 0.0 0.0 0.0 0.0 0.0 0.0 0.0 0.0 0.0 0.0 0.0 0.0 0.0 0.0 0.0 0.0 0.2 0.3 0.5 0.8 1.3 1.3 2.2 1.8 2.7 2.7 3.0 3.4 4.3 5.4 5.0 4.1 3.3 2.8 3.8 3.4 4.9 3.5 4.9
0.4 0.5 2.6 2.9 0.8 0.1 0.0 0.0 0.0 0.0 0.0 0.0 0.0 0.0 0.0 0.0 0.0 0.0 0.0 0.0 0.1 0.6 1.0 1.2 1.9 2.8 3.2 2.9 3.0 3.0 2.9 3.2 6.9 6.7 4.3 3.5 4.1 3.2 3.7 3.8 4.0 5.8 5.6 5.0
1.4 1.5 3.3 2.3 0.8 0.8 0.3 0.0 0.0 0.0 0.0 0.0 0.0 0.0 0.0 0.0 0.0 0.0 0.1 0.3 0.4 0.9 2.0 3.3 5.0 5.4 4.9 4.7 4.7 5.3 4.4 4.2 5.2 5.9 4.3 4.5 5.0 5.3 4.4 3.7 4.8 5.2 3.2 6.1
1.9 2.3 2.5 2.2 1.1 0.7 0.2 0.5 0.2 0.3 0.1 0.1 0.1 0.3 0.5 0.4 0.5 0.9 1.1 0.7 1.0 1.8 2.3 3.5 3.9 4.0 4.7 5.4 5.8 6.8 6.9 5.4 5.8 4.4 5.8 4.8 4.9 4.6 4.5 5.5 6.1 nan nan nan
Water_Equivalent
0.00 0.00 0.00 0.00 0.00 0.00 0.00 0.00 0.00 0.00 0.00 0.00 0.00 0.00 0.00 0.00 0.00 0.00 0.00 0.00 0.00 0.00 0.00 0.00 0.00 0.00 0.00 0.00 0.00 0.00 0.00 0.00 0.00 0.00 0.00 0.00 0.00 0.00 0.00 0.00 0.00 0.00 0.00 0.00
0.00 0.00 0.00 0.00 0.00 0.00 0.00 0.00 0.00 0.00 0.00 0.00 0.00 0.00 0.00 0.00 0.00 0.00 0.00 0.00 0.00 0.00 0.00 0.00 0.00 0.00 0.00 0.00 0.00 0.00 0.00 0.00 0.00 0.00 0.00 0.00 0.00 0.00 0.00 0.00 0.00 0.00 0.00 0.00
0.00 0.00 0.00 0.00 0.00 0.00 0.00 0.00 0.00 0.00 0.00 0.00 0.00 0.00 0.00 0.00 0.00 0.00 0.00 0.00 0.00 0.00 0.00 0.00 0.00 0.00 0.00 0.00 0.00 0.00 0.00 0.00 0.00 0.00 0.00 0.00 0.00 0.00 0.00 0.00 0.00 0.00 0.00 0.00
0.00 0.00 0.00 0.00 0.00 0.00 0.00 0.00 0.00 0.00 0.00 0.00 0.00 0.00 0.00 0.00 0.00 0.00 0.00 0.00 0.00 0.00 0.00 0.00 0.00 0.00 0.00 0.00 0.00 0.00 0.00 0.00 0.00 0.00 0.00 0.00 0.00 0.00 0.00 0.00 0.00 0.00 0.00 0.00
0.02 0.00 0.00 0.00 0.00 0.00 0.00 0.00 0.00 0.00 0.00 0.00 0.00 0.00 0.00 0.00 0.00 0.00 0.00 0.00 0.00 0.00 0.00 0.00 0.00 0.00 0.00 0.00 0.00 0.00 0.00 0.00 0.00 0.00 0.00 0.00 0.00 0.00 0.00 0.00 0.00 0.00 0.00 0.00
0.00 0.00 0.00 0.00 0.00 0.00 0.00 0.00 0.00 0.00 0.00 0.24 0.00 0.00 0.00 0.00 0.00 0.00 0.00 0.00 0.00 0.00 0.00 0.00 0.00 0.00 0.00 0.00 0.00 0.00 0.00 0.00 0.00 0.00 0.00 0.00 0.00 0.00 0.00 0.00 0.00 0.00 0.00 0.00
0.00 0.00 0.00 0.00 0.00 0.00 0.00 0.00 0.74 0.96 1.28 0.19 0.00 0.00 0.00 0.00 0.00 0.00 0.00 0.00 0.00 0.00 0.00 0.00 0.00 0.00 0.00 0.00 0.00 0.00 0.00 0.00 0.00 0.00 0.00 0.00 0.00 0.00 0.00 0.00 0.00 0.00 0.00 0.00
0.28 0.75 0.00 0.00 0.00 0.01 0.00 0.00 0.24 0.13 0.17 0.02 0.00 0.02 0.00 0.00 0.00 0.00 0.00 0.00 0.00 0.00 0.00 0.00 0.00 0.00 0.00 0.00 0.00 0.00 0.00 0.00 0.00 0.00 0.00 0.00 0.00 0.00 0.00 0.00 0.00 0.00 0.00 0.00
0.15 0.04 0.00 0.00 0.00 0.00 0.01 0.13 0.00 0.04 0.32 0.19 0.06 0.00 0.00 0.00 0.00 0.00 0.00 0.00 0.00 0.00 0.00 0.00 0.00 0.00 0.00 0.00 0.00 0.00 0.00 0.00 0.00 0.00 0.00 0.00 0.00 0.00 0.00 0.00 0.00 0.00 0.00 0.00
0.00 0.10 0.00 0.00 0.00 0.00 0.00 0.00 0.45 0.43 1.03 0.41 0.01 0.00 0.00 0.00 0.00 0.00 0.00 0.00 0.00 0.00 0.00 0.00 0.00 0.00 0.00 0.00 0.00 0.00 0.00 0.00 0.00 0.00 0.00 0.00 0.00 0.00 0.00 0.00 0.00 0.00 0.00 0.00
0.00 0.01 0.05 0.00 0.00 0.00 0.00 0.00 0.00 0.11 0.39 0.29 0.20 0.01 0.00 0.00 0.00 0.00 0.00 0.00 0.00 0.00 0.00 0.00 0.00 0.00 0.00 0.00 0.00 0.00 0.00 0.00 0.00 0.00 0.00 0.00 0.00 0.00 0.00 0.00 0.00 0.00 0.00 0.00
0.00 0.00 0.31 0.05 0.00 0.00 0.00 0.00 0.00 0.21 0.07 0.15 0.26 0.16 0.00 0.00 0.00 0.00 0.00 0.00 0.00 0.00 0.00 0.00 0.00 0.00 0.00 0.00 0.00 0.00 0.00 0.00 0.00 0.00 0.00 0.00 0.00 0.00 0.00 0.00 0.00 0.00 0.00 0.00
0.00 0.40 1.22 0.76 0.43 0.00 0.00 0.00 0.00 0.00 0.02 0.03 0.48 0.04 0.00 0.00 0.00 0.00 0.00 0.00 0.00 0.00 0.00 0.00 0.00 0.00 0.00 0.00 0.00 0.00 0.00 0.00 0.00 0.00 0.00 0.00 0.00 0.00 0.00 0.00 0.00 0.00 0.00 0.00
nan 0.01 0.03 0.07 0.04 0.00 0.01 0.00 0.00 0.00 0.86 0.05 0.03 0.00 0.00 0.00 0.00 0.00 0.00 0.00 0.00 0.00 0.00 0.00 0.00 0.00 0.00 0.00 0.00 0.00 0.00 0.00 0.00 0.00 0.00 0.00 0.00 0.00 0.00 0.00 0.00 0.00 0.00 0.00
0.00 0.64 0.00 0.00 0.00 0.00 0.00 0.00 0.00 0.02 0.00 0.08 0.00 0.00 0.00 0.00 0.00 0.00 0.00 0.00 0.00 0.00 0.00 0.00 0.00 0.00 0.00 0.00 0.00 0.00 0.00 0.00 0.00 0.00 0.00 0.00 0.00 0.00 0.00 0.00 0.00 0.00 0.00 0.00
0.00 0.64 0.03 0.50 0.01 0.00 0.02 0.00 0.00 0.00 0.00 0.00 0.00 0.00 0.00 0.00 0.00 0.00 0.00 0.00 0.00 0.00 0.00 0.00 0.00 0.00 0.00 0.00 0.00 0.00 0.00 0.00 0.00 0.00 0.00 0.00 0.00 0.00 0.00 0.00 0.00 0.00 0.00 0.00
0.01 0.32 2.34 3.44 0.03 0.05 2.24 0.04 0.00 0.00 0.00 0.00 0.00 0.00 0.00 0.00 0.00 0.00 0.00 0.00 0.00 0.00 0.00 0.00 0.00 0.00 0.00 0.00 0.00 0.00 0.00 0.00 0.00 0.00 0.00 0.01 0.01 0.01 0.01 0.01 0.01 0.01 0.01 0.01
0.02 0.13 0.68 3.55 1.77 6.58 0.31 0.00 0.00 0.00 0.00 0.00 0.00 0.00 0.00 0.00 0.00 0.00 0.00 0.00 0.00 0.00 0.00 0.00 0.00 0.00 0.00 0.00 0.00 0.00 0.00 0.00 0.00 0.01 0.01 0.02 0.03 0.05 0.06 0.06 0.05 0.04 0.03 0.03
0.00 0.03 2.95 5.02 2.96 0.06 0.00 0.00 0.00 0.00 0.00 0.00 0.00 0.00 0.00 0.00 0.00 0.00 0.00 0.00 0.00 0.00 0.00 0.00 0.00 0.00 0.00 0.01 0.02 0.03 0.05 0.05 0.05 0.05 0.05 0.06 0.06 0.08 0.06 0.09 0.06 0.06 0.06 0.05
0.00 0.00 0.15 4.91 4.62 3.16 0.00 0.00 0.00 0.00 0.10 0.00 0.00 0.00 0.00 0.00 0.00 0.00 0.00 0.00 0.00 0.00 0.00 0.01 0.02 0.03 0.03 0.03 0.02 0.04 0.05 0.06 0.06 0.06 0.06 0.06 0.06 0.13 0.11 0.09 0.14 0.14 0.12 0.14
1.84 2.77 5.00 4.15 3.78 1.17 0.01 0.00 0.00 0.54 0.02 0.03 0.00 0.00 0.00 0.00 0.00 0.00 0.00 0.00 0.00 0.01 0.03 0.04 0.07 0.08 0.14 0.19 0.21 0.21 0.18 0.19 0.17 0.18 0.16 0.17 0.15 0.24 0.13 0.16 0.15 0.25 0.32 0.20
0.72 2.24 4.40 2.93 3.83 4.17 0.00 0.00 0.00 0.01 0.01 0.01 0.00 0.00 0.00 0.00 0.00 0.00 0.00 0.00 0.01 0.02 0.03 0.04 0.04 0.05 0.06 0.09 0.09 0.10 0.09 0.12 0.20 0.24 0.26 0.31 0.40 0.32 0.27 0.59 0.41 0.63 0.53 0.58
1.04 0.16 0.91 0.12 0.64 0.00 0.00 0.01 0.00 0.00 0.01 0.01 0.00 0.00 0.00 0.00 0.00 0.00 0.00 0.00 0.01 0.02 0.04 0.05 0.10 0.16 0.14 0.27 0.22 0.28 0.26 0.28 0.35 0.55 0.77 0.75 0.66 0.62 0.61 0.88 0.63 0.91 0.73 0.90
0.08 0.11 0.71 0.64 0.19 0.02 0.01 0.00 0.00 0.00 0.00 0.00 0.00 0.00 0.00 0.00 0.00 0.00 0.00 0.00 0.01 0.07 0.12 0.15 0.22 0.28 0.31 0.28 0.31 0.33 0.30 0.33 1.02 1.01 0.57 0.45 0.58 0.50 0.59 0.74 0.80 1.17 1.03 0.87
0.26 0.28 0.56 0.46 0.14 0.14 0.06 0.01 0.00 0.00 0.00 0.00 0.00 0.00 0.00 0.00 0.00 0.00 0.03 0.05 0.05 0.11 0.20 0.31 0.43 0.44 0.42 0.37 0.37 0.48 0.42 0.45 0.64 0.72 0.41 0.52 0.71 0.79 0.50 0.43 0.76 0.76 0.48 1.03
0.23 0.26 0.42 0.45 0.15 0.09 0.03 0.09 0.03 0.03 0.01 0.01 0.01 0.04 0.06 0.06 0.06 0.10 0.13 0.08 0.11 0.19 0.23 0.30 0.33 0.31 0.34 0.41 0.45 0.59 0.74 0.67 0.70 0.45 0.62 0.58 0.59 0.54 0.51 0.60 0.69 nan nan nan
SL_Ratio
nan nan nan nan nan nan nan nan nan nan nan nan nan nan nan nan nan nan nan nan nan nan nan nan nan nan nan nan nan nan nan nan nan nan nan nan nan nan nan nan nan nan nan nan
nan nan nan nan nan nan nan nan nan nan nan nan nan nan nan nan nan nan nan nan nan nan nan nan nan nan nan nan nan nan nan nan nan nan nan nan nan nan nan nan nan nan nan nan
nan nan nan nan nan nan nan nan nan nan nan nan nan nan nan nan nan nan nan nan nan nan nan nan nan nan nan nan nan nan nan nan nan nan nan nan nan nan nan nan nan nan nan nan
nan nan nan nan nan nan nan nan nan nan nan nan nan nan nan nan nan nan nan nan nan nan nan nan nan nan nan nan nan nan nan nan nan nan nan nan nan nan nan nan nan nan nan nan
2.5 nan nan nan nan nan nan nan nan nan nan 3.8 nan 4.0 nan nan nan nan nan nan nan nan nan nan nan nan nan nan nan nan nan nan nan nan nan nan nan nan nan nan nan nan nan nan
nan nan nan nan nan nan nan nan nan nan nan 3.9 nan nan nan nan nan nan nan nan nan nan nan nan nan nan nan nan nan nan nan nan nan nan nan nan nan nan nan nan nan nan nan nan
nan nan nan nan nan nan nan 2.7 4.6 5.1 5.6 4.8 nan nan nan nan nan nan nan nan nan nan nan nan nan nan nan nan nan nan nan nan nan nan nan nan nan nan nan nan nan nan nan nan
2.9 4.7 nan nan 0.0 2.6 nan 0.0 4.0 5.9 4.3 2.9 nan 3.2 nan nan nan nan nan nan nan nan nan nan nan nan nan nan nan nan nan nan nan nan nan nan nan nan nan nan nan nan nan nan
3.3 3.9 nan nan nan nan 2.6 2.5 nan 4.3 4.3 4.0 4.3 nan nan nan nan nan nan nan nan nan nan nan nan nan nan nan nan nan nan nan nan nan nan nan nan nan nan nan nan nan nan nan
nan 4.3 nan nan nan nan nan nan 4.3 3.8 6.0 6.2 5.4 nan nan nan nan nan nan nan nan nan nan nan nan nan nan nan nan nan nan nan nan nan nan nan nan nan nan nan nan nan nan nan
nan 4.2 2.8 nan nan nan nan nan 0.0 3.4 3.7 4.6 4.4 5.4 nan nan nan nan nan nan nan nan nan nan nan nan nan nan nan nan nan nan nan nan nan nan nan nan nan nan nan nan nan nan
nan nan 3.6 2.9 nan nan nan nan nan 4.1 4.9 4.2 4.4 5.4 nan nan nan nan nan nan nan nan nan nan nan nan nan nan nan nan nan nan nan nan nan nan nan nan nan nan nan nan nan nan
nan 3.6 4.9 5.1 5.4 2.1 nan nan nan nan 3.1 4.5 4.4 4.0 nan nan nan nan nan nan nan nan nan nan nan nan nan nan nan nan nan nan nan nan nan nan nan nan nan nan nan nan nan nan
nan 3.3 3.5 3.4 3.7 nan 3.2 nan nan nan 4.2 2.9 2.7 nan nan nan nan nan nan nan nan nan nan nan nan nan nan nan nan nan nan nan nan nan nan nan nan nan nan nan nan nan nan nan
nan 4.2 nan nan nan nan nan nan nan 3.8 0.0 4.4 nan nan nan nan nan nan nan nan nan nan nan nan nan nan nan nan nan nan nan nan nan nan nan nan nan nan nan nan nan nan nan nan
nan 3.8 4.0 5.1 3.6 4.0 3.7 nan nan nan nan nan nan nan nan nan nan nan nan nan nan nan nan nan nan nan nan nan nan nan nan nan nan nan nan nan nan nan nan nan nan 2.2 3.3 nan
2.4 3.6 3.5 4.4 4.4 4.1 5.9 4.7 nan nan nan nan nan nan nan nan nan nan nan nan nan nan nan nan nan nan nan nan nan nan nan nan nan nan 3.1 3.3 3.5 3.3 3.0 2.8 2.5 2.5 4.0 4.6
2.5 3.0 2.8 4.4 4.0 6.8 5.4 nan nan nan nan nan nan nan nan nan nan nan nan nan nan nan nan nan nan nan nan nan nan nan nan 6.0 5.6 4.4 3.8 4.2 4.8 5.6 6.3 6.2 6.1 5.7 5.4 5.3
nan 3.1 4.9 5.9 5.5 4.6 nan nan nan nan nan nan nan nan nan nan nan nan nan nan nan nan nan nan nan nan nan 7.9 7.7 7.3 7.6 6.7 5.7 5.8 7.0 7.1 6.6 5.9 6.3 5.6 6.2 6.4 5.9 5.4
nan nan 3.5 5.0 5.1 7.2 nan nan nan nan 3.7 nan nan nan nan nan nan nan nan nan nan nan nan 6.8 8.0 7.8 8.0 8.4 7.8 7.4 8.0 8.0 8.2 8.0 7.9 7.3 6.6 6.0 6.6 7.0 6.5 6.2 5.3 5.9
3.7 3.8 4.6 4.7 4.9 4.5 2.4 2.0 nan 6.1 3.5 2.7 nan nan nan nan nan nan nan nan nan 7.1 8.1 8.4 8.7 7.1 7.0 7.0 7.4 8.5 8.5 9.3 8.7 8.9 8.9 8.4 7.8 6.5 6.9 6.2 6.2 5.7 5.1 5.7
5.5 5.0 5.1 5.3 5.3 6.5 2.7 3.3 4.3 2.4 2.8 2.6 0.0 nan nan nan nan nan nan nan 8.5 9.2 9.1 8.3 8.0 8.6 9.2 8.8 8.4 8.6 9.4 9.2 8.9 8.6 8.7 8.2 6.3 6.1 6.0 4.6 5.5 4.9 5.0 5.2
5.2 4.2 3.8 3.9 3.8 3.3 nan 2.8 nan 2.5 2.9 3.2 nan nan nan nan nan nan nan nan 9.4 9.5 9.7 9.6 7.7 8.1 9.4 8.2 8.2 9.4 10.6 10.7 9.7 7.8 6.9 6.6 6.2 5.2 4.6 4.3 5.3 5.3 4.8 5.4
4.6 4.6 3.7 4.5 4.2 3.6 3.3 nan nan nan nan nan nan nan nan nan nan nan nan 5.7 9.7 8.4 8.4 8.3 8.9 9.9 10.3 10.2 9.9 9.1 9.8 9.7 6.7 6.6 7.6 7.9 7.0 6.4 6.2 5.2 5.0 4.9 5.4 5.8
5.3 5.4 6.0 5.1 6.1 5.8 4.4 3.8 nan nan nan nan nan nan nan nan nan nan 4.2 5.2 7.3 8.7 10.2 10.9 11.6 12.2 11.5 12.7 12.7 11.0 10.6 9.3 8.2 8.2 10.3 8.7 7.1 6.6 8.8 8.5 6.3 6.9 6.8 5.9
8.2 8.9 6.0 5.0 6.9 7.2 5.7 6.1 7.3 8.7 8.5 4.9 5.3 7.7 7.7 7.6 8.2 8.8 8.8 8.5 8.8 9.6 10.1 11.8 12.0 12.8 13.7 13.3 13.0 11.7 9.3 8.1 8.3 9.9 9.4 8.2 8.3 8.6 8.7 9.2 8.9 nan nan nan